Hourly Data Report for July 18, 2003

SHERBROOKE A
QUEBEC

45°26'00.000" N
71°41'00.000" W
241.40 m
7028124
71610
YSC

Download Data

Hourly Data (July 2003)
Hourly Data Report for July 18, 2003
TIME
LST
Temp Definition
°C
Dew Point Definition
°C
Rel Hum Definition
%
Precip. Amount Definition
mm

Wind Dir Definition
10's deg

Wind Spd Definition
km/h
Visibility Definition
km
Stn Press Definition
kPa
Hmdx Definition


Wind Chill Definition


Weather Definition


00:00 17.0 15.3 90   26 13 8.0 98.52     Rain
01:00 16.5 15.4 93   27 6 15.0 98.55      
02:00 14.9 13.2 90   32 6 15.0 98.59      
03:00 14.1 12.2 88   3 4 15.0 98.60      
04:00 13.7 12.7 94     0 15.0 98.60      
05:00 12.6 11.7 94     0 15.0 98.61      
06:00 13.8 12.7 93   29 4 15.0 98.65      
07:00 16.3 13.1 81   20 6 24.1 98.66     Mainly Clear
08:00 18.1 10.2 60   22 4 24.1 98.64     Mainly Clear
09:00 20.0 9.2 50   28 15 24.1 98.64     Mainly Clear
10:00 20.6 8.7 46   28 15 24.1 98.59     Mainly Clear
11:00 21.3 9.7 47   29 17 24.1 98.57     Mainly Clear
12:00 21.8 9.6 46   27 11 24.1 98.52     Mainly Clear
13:00 21.9 10.1 47   30 11 24.1 98.48     Mainly Clear
14:00 22.6 10.2 45   25 13 24.1 98.46     Mainly Clear
15:00 21.9 9.6 45   30 15 24.1 98.44     Mainly Clear
16:00 22.3 8.9 42   27 20 24.1 98.41     Mainly Clear
17:00 21.2 9.3 47   29 15 15.0 98.40      
18:00 19.8 9.9 53   29 9 15.0 98.43      
19:00 18.5 11.4 63   21 4 15.0 98.44      
20:00 17.7 10.5 63   21 4 15.0 98.45      
21:00 14.5 10.6 77   23 6 15.0 98.51      
22:00 13.0 10.6 85     0 15.0 98.53      
23:00 13.2 10.7 85   17 7 15.0 98.52      

Notes on Data Quality.

Legend

  • E = Estimated
  • M = Missing
  • NA = Not Available*
  • [empty] = Indicates an unobserved value
Date modified: